Hourly Data Report for September 22, 2017

All times are specified in Local Standard Time (LST). Add 1 hour to adjust for Daylight Saving Time where and when it is observed.

MONCTON INTL A
NEW BRUNSWICK

46°06'44.000" N
64°40'43.000" W
70.70 m
8103201
71705
YQM

Download Data

Hourly Data (September 2017)
Hourly Data Report for September 22, 2017
Temp Definition
°C
Dew Point Temp Definition
°C
Rel Hum Definition
%
Wind Dir Definition
10's deg

Wind Spd Definition
km/h
Visibility Definition
km
Stn Press Definition
kPa
Hmdx Definition


Wind Chill Definition


Weather Definition


TIME
00:00 Legend Double Dagger 5.8 5.2 96 8 7 24.1 101.47     LegendNANA
01:00 Legend Double Dagger 7.0 6.4 96 8 4 24.1 101.47     LegendNANA
02:00 Legend Double Dagger 6.5 5.8 95 36 3 24.1 101.46     Mainly Clear
03:00 Legend Double Dagger 3.9 3.5 98 1 8 24.1 101.44     LegendNANA
04:00 Legend Double Dagger 7.0 6.8 99 5 4 24.1 101.43     LegendNANA
05:00 Legend Double Dagger 4.8 4.6 99 36 2 24.1 101.40     Mainly Clear
06:00 Legend Double Dagger 4.0 3.8 98 1 5 2.0 101.43     Fog
07:00 Legend Double Dagger 4.4 4.2 99 2 4 16.1 101.46     LegendNANA
08:00 Legend Double Dagger 10.8 10.1 95 36 1 24.1 101.47     Mainly Clear
09:00 Legend Double Dagger 14.4 11.5 82 6 8 24.1 101.49     LegendNANA
10:00 Legend Double Dagger 16.3 8.8 61 9 5 24.1 101.48     LegendNANA
11:00 Legend Double Dagger 18.1 10.1 59 7 7 24.1 101.39     Mainly Clear
12:00 Legend Double Dagger 19.7 9.0 50 13 7 24.1 101.31     LegendNANA
13:00 Legend Double Dagger 20.7 9.0 47 10 7 24.1 101.27     LegendNANA
14:00 Legend Double Dagger 21.8 11.0 50 3 4 24.1 101.21     Clear
15:00 Legend Double Dagger 20.6 13.6 64 4 15 24.1 101.16     LegendNANA
16:00 Legend Double Dagger 20.2 12.2 60 3 15 24.1 101.14     LegendNANA
17:00 Legend Double Dagger 18.5 11.4 63 5 12 24.1 101.14     Clear
18:00 Legend Double Dagger 15.4 10.9 74 6 7 24.1 101.11     LegendNANA
19:00 Legend Double Dagger 14.6 9.4 71 12 15 24.1 101.10     LegendNANA
20:00 Legend Double Dagger 13.8 3.0 48 13 13 24.1 101.07     Clear
21:00 Legend Double Dagger 12.2 2.7 52 15 10 24.1 101.03     LegendNANA
22:00 Legend Double Dagger 12.4 4.5 58 18 11 24.1 101.01     LegendNANA
23:00 Legend Double Dagger 7.1 4.8 85 35 7 24.1 101.03     Clear

Notes on Data Quality.

Legend

  • E = Estimated
  • M = Missing
  • NA = Not Available
  • ‡ = Partner data that is not subject to review by the National Climate Archives
Date modified: